Terminal Aerodrome Forecast
Issued by NWS Rapid City, SD

Home | Current Version | Previous Version | Text Only | Print | Product List | Glossary Off
Versions: 1 2 3 4 5 6 7 8 9 10 11 12 13 14 15 16 17 18 19

859
FTUS43 KUNR 201531 AAA
TAFRAP
TAF AMD
KRAP 201531Z 2016/2112 16005KT P6SM SCT200
     FM201700 14013G23KT P6SM BKN200
     FM210300 14011KT P6SM VCTS SCT100CB
     FM210800 32006KT P6SM BKN250=

USA.gov is the U.S. government's official web portal to all federal, state and local government web resources and services.